[[{"header":{"parameterUnit":"m.s-1","parameterCategory":1,"la1":30.2991,"la2":30.254,"lo1":-89.0895,"lo2":-89.0444,"dy":0.0017,"dx":0.0017,"nx":28,"ny":28,"refTime":"2024-03-11T09:00:00:Z","depth":0,"parameterNumber":2,"parameterNumberName":"U-component_of_WINDS"},"data":[0,0,0,0,0,0,0,0,0,0,0,0,0,0,0,0,0,0,0,0,0,0,0,0,0,0,0,0,0,0,0,0,0,0,0,0,0,0,0,0,0,0,0,0,0,0,0,0,0,0,0,0,0,0,0,0,0,0,-0.7838,-0.7838,0,-0.7784,-0.7783,-0.7783,-0.7685,-0.7683,-0.7681,-0.7679,-0.7627,-0.7627,-0.7628,0,0,0,0,0,0,0,0,0,0,0,0,0,-0.7861,-0.7861,-0.7838,-0.7838,-0.7837,-0.7784,-0.7783,-0.7783,-0.7685,-0.7683,-0.7681,-0.7678,-0.7627,-0.7627,-0.7628,0,0,0,0,0,0,0,0,0,0,0,0,0,-0.7833,-0.7861,-0.7839,-0.7782,-0.7776,-0.7784,-0.7783,-0.7782,-0.7686,-0.7683,-0.768,-0.7677,-0.7627,-0.7627,-0.7628,-0.7688,0,0,-0.763,-0.763,0,0,0,0,0,0,0,0,-0.7835,-0.7833,-0.7791,-0.7786,-0.778,-0.7738,-0.7772,-0.7751,-0.7686,-0.772,-0.7679,-0.7676,-0.7667,-0.7664,-0.766,-0.7685,-0.7683,-0.763,-0.763,-0.763,-0.763,0,0,0,0,0,0,0,-0.7837,-0.7835,-0.7817,-0.7791,-0.7784,-0.776,-0.7753,-0.7768,-0.771,-0.7717,-0.771,-0.7704,-0.7663,-0.7659,-0.7658,-0.7682,-0.763,-0.763,-0.763,-0.7631,-0.7755,-0.7758,0,0,0,0,0,0,-0.7847,-0.7837,-0.7819,-0.7815,-0.7801,-0.7762,-0.7754,-0.7754,-0.771,-0.77,-0.7707,-0.77,-0.766,-0.7657,-0.7656,-0.7724,-0.763,-0.7631,-0.7631,-0.7752,-0.7756,-0.7759,0,0,0,0,0,0,-0.7848,-0.7846,-0.7821,-0.7824,-0.7819,-0.7765,-0.7766,-0.7755,-0.7751,-0.7702,-0.7691,-0.7714,-0.7658,-0.7655,-0.768,-0.772,-0.7631,-0.7631,-0.7749,-0.7753,-0.7757,-0.786,0,0,0,0,0,0,-0.7849,-0.7847,-0.7869,-0.7825,-0.7819,-0.7846,-0.7768,-0.7756,-0.7752,-0.7743,-0.7706,-0.7697,-0.7655,-0.768,-0.7681,-0.772,-0.7632,-0.7745,-0.7751,-0.7756,-0.7853,-0.7868,-0.788,0,0,0,0,0,-0.785,-0.79,-0.787,-0.7869,-0.7845,-0.7849,-0.7845,-0.7795,-0.7756,-0.7777,-0.7746,-0.7698,-0.7716,-0.7684,-0.7684,-0.7723,-0.7742,-0.7749,-0.7756,-0.7847,-0.7865,-0.788,0,0,0,0,0,0,-0.7951,-0.7894,-0.786,-0.7897,-0.7878,-0.7832,-0.7858,-0.7816,-0.7809,-0.78,-0.774,-0.7732,-0.7766,-0.7747,-0.7712,-0.7779,-0.7721,-0.7729,-0.7791,-0.7807,-0.7821,-0.7825,-0.7632,0,0,0,0,0,-0.7978,-0.7984,-0.7934,-0.7972,-0.7964,-0.7913,-0.7913,-0.7876,-0.7854,-0.7846,-0.7816,-0.7798,-0.78,-0.7802,-0.7801,-0.7849,-0.784,-0.7876,-0.789,-0.7901,-0.7909,-0.7934,-0.795,-0.7781,-0.7781,-0.7781,0,0,-0.8033,-0.8002,-0.801,-0.7992,-0.7973,-0.7982,-0.7907,-0.792,-0.7927,-0.7849,-0.7871,-0.7849,-0.7824,-0.7862,-0.7877,-0.7847,-0.7953,-0.791,-0.7919,-0.792,-0.7943,-0.7959,-0.7973,-0.7786,-0.7785,-0.7784,0,0,-0.8139,-0.8115,-0.8145,-0.8127,-0.8099,-0.8065,-0.8072,-0.8032,-0.8014,-0.8035,-0.7976,-0.7984,-0.7987,-0.7973,-0.7966,-0.8066,-0.8023,-0.8067,-0.8139,-0.8164,-0.8178,-0.8189,-0.8227,-0.824,-0.8074,-0.8075,-0.8075,0,-0.8211,-0.8222,-0.8166,-0.8183,-0.8177,-0.8105,-0.8135,-0.8121,-0.8095,-0.8093,-0.8059,-0.8062,-0.804,-0.8074,-0.8099,-0.8095,-0.8103,-0.8072,-0.818,-0.8191,-0.8201,-0.8236,-0.825,-0.808,-0.808,-0.8079,-0.8079,0,-0.8314,-0.8322,-0.835,-0.8325,-0.8322,-0.8346,-0.8294,-0.8298,-0.8261,-0.8231,-0.8254,-0.8225,-0.8217,-0.8222,-0.8187,-0.8251,-0.8234,-0.8191,-0.8132,-0.8224,-0.8256,-0.8269,-0.8089,-0.8087,-0.8085,-0.8084,0,0,-0.8483,-0.8426,-0.8437,-0.8426,-0.8389,-0.8395,-0.8416,-0.8407,-0.8412,-0.8396,-0.8413,-0.8417,-0.8378,-0.837,-0.8332,-0.8354,-0.8437,-0.8309,-0.8307,-0.8335,-0.8508,-0.8542,-0.8559,-0.8407,-0.8409,-0.8411,-0.8511,0,-0.8582,-0.8614,-0.8563,-0.8607,-0.8615,-0.8546,-0.8564,-0.8545,-0.8517,-0.852,-0.8489,-0.8494,-0.844,-0.8436,-0.8454,-0.8423,-0.8472,-0.8415,-0.8424,-0.8425,-0.8434,-0.8575,-0.861,-0.8706,-0.8523,-0.8525,-0.8526,0,-0.8703,-0.8692,-0.8736,-0.8697,-0.8699,-0.8716,-0.8704,-0.8707,-0.8684,-0.8662,-0.8654,-0.8608,-0.8627,-0.8569,-0.8595,-0.8558,-0.8558,-0.8543,-0.8546,-0.8546,-0.8483,-0.8581,-0.8735,-0.875,-0.8545,-0.8544,-0.8542,0,-0.8824,-0.882,-0.8846,-0.8838,-0.8793,-0.8807,-0.8789,-0.8762,-0.876,-0.875,-0.8748,-0.8741,-0.8738,-0.8733,-0.8688,-0.8649,-0.872,-0.8658,-0.8704,-0.8705,-0.8723,-0.8723,-0.8882,-0.8721,-0.8721,-0.8721,-0.872,0,-0.8941,-0.8971,-0.89,-0.8916,-0.8948,-0.8891,-0.8924,-0.89,-0.8877,-0.8888,-0.8828,-0.884,-0.8778,-0.8784,-0.8748,-0.8776,-0.8775,-0.8759,-0.8749,-0.8765,-0.8767,-0.8766,-0.8759,-0.8724,-0.8723,-0.8723,-0.8722,0,-0.9083,-0.9036,-0.906,-0.9015,-0.9004,-0.903,-0.8992,-0.9006,-0.8974,-0.8989,-0.8989,-0.8939,-0.8943,-0.8896,-0.8891,-0.8867,-0.8912,-0.889,-0.892,-0.8914,-0.8963,-0.896,-0.9128,-0.9148,-0.8973,-0.8975,-0.8976,0,-0.9161,-0.9183,-0.914,-0.9142,-0.9127,-0.9132,-0.913,-0.9074,-0.9074,-0.9049,-0.9066,-0.9065,-0.9061,-0.907,-0.9034,-0.903,-0.9008,-0.9067,-0.9008,-0.9023,-0.9012,-0.9012,-0.9014,-0.9081,-0.9083,-0.9085,-0.9086,0,-0.9307,-0.9282,-0.928,-0.9271,-0.9269,-0.9259,-0.9245,-0.9251,-0.919,-0.9193,-0.9196,-0.9192,-0.9187,-0.9187,-0.9176,-0.9158,-0.9114,-0.9105,-0.9116,-0.9133,-0.9151,-0.9144,-0.8956,-0.9102,-0.91,-0.9099,-0.9098,-0.9098,-0.942,-0.9436,-0.9409,-0.9409,-0.9392,-0.9381,-0.9392,-0.936,-0.9361,-0.9352,-0.9318,-0.9327,-0.9304,-0.9284,-0.9271,-0.9278,-0.9249,-0.9264,-0.9268,-0.9274,-0.9284,-0.9148,-0.9275,-0.9275,-0.9274,-0.9274,-0.9273,0,-0.9564,-0.9542,-0.9543,-0.9525,-0.9525,-0.9481,-0.9463,-0.9467,-0.9475,-0.9456,-0.9453,-0.9457,-0.9456,-0.942,-0.9415,-0.9428,-0.9407,-0.9429,-0.9428,-0.9425,-0.9309,-0.93,-0.9446,-0.9446,-0.9446,-0.9446,-0.9446,-0.9446,-0.9639,-0.9664,-0.9637,-0.9654,-0.9632,-0.964,-0.9634,-0.9623,-0.9608,-0.9614,-0.9613,-0.9589,-0.9564,-0.9557,-0.9555,-0.9544,-0.9546,-0.9575,-0.9558,-0.945,-0.9433,-0.9418,-0.941,-0.9576,-0.9576,-0.9674,-0.9675,-0.9676]},{"header":{"parameterUnit":"m.s-1","parameterCategory":1,"la1":30.2991,"la2":30.254,"lo1":-89.0895,"lo2":-89.0444,"dy":0.0017,"dx":0.0017,"nx":28,"ny":28,"refTime":"2024-03-11T09:00:00:Z","depth":0,"parameterNumber":3,"parameterNumberName":"V-component_of_WINDS"},"data":[0,0,0,0,0,0,0,0,0,0,0,0,0,0,0,0,0,0,0,0,0,0,0,0,0,0,0,0,0,0,0,0,0,0,0,0,0,0,0,0,0,0,0,0,0,0,0,0,0,0,0,0,0,0,0,0,0,0,0.0708,0.0707,0,0.0601,0.06,0.0599,0.0578,0.0579,0.058,0.0581,0.0465,0.0461,0.0457,0,0,0,0,0,0,0,0,0,0,0,0,0,0.0892,0.0889,0.0709,0.0707,0.0706,0.0601,0.06,0.0598,0.0578,0.0579,0.058,0.0581,0.0466,0.0461,0.0457,0,0,0,0,0,0,0,0,0,0,0,0,0,0.0801,0.0887,0.0709,0.0683,0.068,0.0602,0.06,0.0598,0.0578,0.0579,0.058,0.0581,0.0467,0.0462,0.0456,0.0394,0,0,0.0438,0.0436,0,0,0,0,0,0,0,0,0.0806,0.0794,0.0688,0.0685,0.0681,0.0604,0.0622,0.0529,0.0577,0.0616,0.0581,0.0582,0.051,0.05,0.0477,0.0388,0.0383,0.0438,0.0434,0.0432,0.043,0,0,0,0,0,0,0,0.0812,0.0799,0.0666,0.0687,0.0682,0.0676,0.0664,0.0604,0.0557,0.0613,0.0611,0.0599,0.0508,0.0483,0.0474,0.0382,0.0438,0.0433,0.0429,0.0427,0.0237,0.0236,0,0,0,0,0,0,0.0824,0.0804,0.0669,0.0663,0.0748,0.0671,0.0659,0.0628,0.0557,0.0548,0.0598,0.0599,0.0492,0.0481,0.047,0.0393,0.0432,0.0426,0.0423,0.0238,0.0237,0.0235,0,0,0,0,0,0,0.0828,0.0812,0.0674,0.0733,0.0715,0.0667,0.0632,0.0625,0.06,0.0546,0.0537,0.0582,0.0493,0.0478,0.0414,0.0388,0.0423,0.0418,0.024,0.0238,0.0236,0.0238,0,0,0,0,0,0,0.0833,0.0814,0.079,0.0733,0.0712,0.062,0.0631,0.0622,0.059,0.059,0.0528,0.0519,0.0493,0.0422,0.0408,0.0381,0.0414,0.0242,0.0239,0.0237,0.0239,0.0236,0.0232,0,0,0,0,0,0.084,0.0794,0.0789,0.0773,0.0682,0.0619,0.0606,0.0578,0.0589,0.0564,0.053,0.0521,0.0394,0.0416,0.0399,0.037,0.0244,0.024,0.0237,0.0241,0.0236,0.0232,0,0,0,0,0,0,0.0847,0.0786,0.078,0.0714,0.0672,0.0615,0.0583,0.0574,0.0527,0.0528,0.0494,0.048,0.0417,0.0387,0.0413,0.0307,0.0319,0.0312,0.0328,0.0323,0.032,0.0327,0.0409,0,0,0,0,0,0.0842,0.0797,0.0745,0.0692,0.0671,0.0631,0.0602,0.0585,0.0539,0.0521,0.0482,0.0436,0.0386,0.0353,0.0304,0.0236,0.0222,0.0208,0.0204,0.0202,0.0195,0.0157,0.015,0.0224,0.0224,0.0224,0,0,0.0828,0.0789,0.0763,0.0692,0.0658,0.0611,0.0616,0.0566,0.053,0.0512,0.0449,0.0419,0.0366,0.03,0.0268,0.0273,0.0173,0.0197,0.0196,0.0191,0.0153,0.0146,0.014,0.0221,0.0222,0.0222,0,0,0.078,0.0747,0.0699,0.0665,0.0614,0.0588,0.0577,0.0522,0.0502,0.0439,0.0424,0.0381,0.0295,0.0258,0.0228,0.0169,0.0159,0.0154,0.0134,0.0098,0.0092,0.0087,0.0065,0.0057,0.0148,0.0148,0.0148,0,0.077,0.0701,0.0675,0.0626,0.0596,0.058,0.0531,0.0498,0.0433,0.0411,0.0418,0.0311,0.0274,0.0199,0.0185,0.0161,0.0146,0.016,0.0095,0.009,0.0084,0.0063,0.0055,0.0148,0.0148,0.0148,0.0148,0,0.069,0.0642,0.061,0.0549,0.0515,0.0466,0.0432,0.04,0.0387,0.036,0.0296,0.0251,0.0193,0.0175,0.0159,0.0097,0.0102,0.0102,0.0114,0.0077,0.0057,0.0048,0.0148,0.0148,0.0148,0.0148,0,0,0.0641,0.057,0.0558,0.0531,0.0474,0.0435,0.0386,0.0332,0.0305,0.0261,0.0217,0.0147,0.0148,0.0114,0.0095,0.0063,0.0018,0.0067,0.0065,0.0059,-0.0054,-0.0055,-0.0064,0.0013,0.0011,0.001,-0.0049,0,0.0585,0.0498,0.0475,0.0401,0.0356,0.0342,0.0299,0.0259,0.0233,0.019,0.0161,0.0111,0.0117,0.0096,0.0064,0.0031,-0.0005,0.0035,-0.003,-0.0032,-0.0017,-0.0074,-0.0076,-0.013,-0.0058,-0.0059,-0.006,0,0.0508,0.0465,0.0387,0.0338,0.0318,0.028,0.0229,0.0189,0.0143,0.0126,0.009,0.0074,0.0021,0.0038,-0.0037,-0.0009,-0.0036,-0.0057,-0.0059,-0.0068,-0.0049,-0.0086,-0.0148,-0.0156,-0.0073,-0.0072,-0.0071,0,0.0479,0.0402,0.0345,0.0323,0.0263,0.0237,0.0211,0.0167,0.0136,0.0091,0.007,0.0019,-0.0009,-0.0049,-0.0078,-0.0064,-0.015,-0.0136,-0.0167,-0.0166,-0.0187,-0.0185,-0.0255,-0.0201,-0.0201,-0.0201,-0.0201,0,0.0419,0.0371,0.0332,0.0297,0.0243,0.0217,0.0164,0.0137,0.0099,0.0057,0.0042,0.0003,-0.0033,-0.0077,-0.01,-0.0158,-0.0171,-0.0186,-0.0192,-0.0186,-0.0184,-0.0206,-0.0204,-0.0203,-0.0203,-0.0202,-0.0202,0,0.0376,0.0348,0.0286,0.0236,0.0223,0.0185,0.0142,0.0107,0.0082,0.003,0.0016,-0.0024,-0.0077,-0.0109,-0.0176,-0.0191,-0.0256,-0.026,-0.024,-0.0243,-0.0272,-0.0269,-0.036,-0.0373,-0.0309,-0.031,-0.031,0,0.0339,0.0302,0.025,0.0222,0.0197,0.0152,0.0121,0.0095,0.0063,0.0009,-0.0019,-0.0072,-0.0116,-0.0199,-0.0235,-0.0286,-0.0292,-0.032,-0.03,-0.0292,-0.0294,-0.0292,-0.0296,-0.0324,-0.0325,-0.0325,-0.0326,0,0.0275,0.0264,0.0221,0.0174,0.0138,0.0099,0.006,0.0038,0.0005,-0.003,-0.0082,-0.0116,-0.0183,-0.0235,-0.0289,-0.0318,-0.0328,-0.0331,-0.0341,-0.0336,-0.0323,-0.0331,-0.025,-0.033,-0.0329,-0.0329,-0.0329,-0.0329,0.0233,0.02,0.0159,0.0112,0.0081,0.0045,0.001,-0.0018,-0.0061,-0.0117,-0.013,-0.0185,-0.0229,-0.0302,-0.0331,-0.0375,-0.0372,-0.0386,-0.039,-0.0393,-0.0394,-0.0314,-0.0385,-0.0385,-0.0385,-0.0385,-0.0385,0,0.0167,0.0141,0.0098,0.0046,0.0009,0.0006,-0.0037,-0.0068,-0.0116,-0.0155,-0.0196,-0.0256,-0.0306,-0.0345,-0.0397,-0.0425,-0.0431,-0.0438,-0.0437,-0.0444,-0.0394,-0.0381,-0.0432,-0.0432,-0.0432,-0.0432,-0.0432,-0.0432,0.0129,0.0073,0.0057,-0.0014,-0.0041,-0.0093,-0.0117,-0.015,-0.0181,-0.0247,-0.0288,-0.0312,-0.0351,-0.0406,-0.0452,-0.0462,-0.0482,-0.0488,-0.0499,-0.0453,-0.0447,-0.0443,-0.043,-0.0491,-0.0491,-0.0545,-0.0546,-0.0546]}]]